When you browse on this site, cookies collect data to enhance your experience and personalize the content and advertising you see.
Visit our Privacy Policy to learn more. By continuing to use the site, you agree to this use of cookies and data.
  • In Czech Republic
  • List of Countries
  • For 7 days
  • Water Temperature
  • Weather Map
  • Weather Widgets
  • user-avatar
    Login

    Hourly Weather Kaprun

    Today, 26 February, Wednesday

    Time Temperature Precipitation Wind Pressure Humidity
    00:00 -2°C° 0.5 mm 1 mps 584 mmHg 96%
    01:00 -5°C° 0 mm 2 mps 583 mmHg 96%
    02:00 -5°C° 1.1 mm 2 mps 583 mmHg 96%
    03:00 -4°C° 1.1 mm 1 mps 582 mmHg 97%
    04:00 -4°C° 1.1 mm 1 mps 581 mmHg 97%
    05:00 -6°C° 1.4 mm 1 mps 581 mmHg 97%
    06:00 -7°C° 1.4 mm 2 mps 581 mmHg 96%
    07:00 -7°C° 0 mm 2 mps 581 mmHg 96%
    08:00 -7°C° 1 mm 2 mps 581 mmHg 91%
    09:00 -8°C° 1 mm 2 mps 581 mmHg 86%
    10:00 -8°C° 1 mm 2 mps 580 mmHg 81%
    11:00 -8°C° 0.1 mm 2 mps 581 mmHg 80%
    12:00 -7°C° 0.1 mm 2 mps 581 mmHg 79%
    13:00 -7°C° 0 mm 2 mps 582 mmHg 68%
    14:00 -8°C° 0.5 mm 3 mps 581 mmHg 74%
    15:00 -9°C° 0.5 mm 3 mps 581 mmHg 79%
    16:00 -11°C° 0.5 mm 4 mps 581 mmHg 85%
    17:00 -12°C° 0.4 mm 3 mps 581 mmHg 88%
    18:00 -13°C° 0.4 mm 3 mps 581 mmHg 90%
    19:00 -14°C° 0.4 mm 2 mps 582 mmHg 93%
    20:00 -14°C° 0.2 mm 2 mps 582 mmHg 93%
    21:00 -14°C° 0.2 mm 2 mps 582 mmHg 94%
    22:00 -14°C° 0.2 mm 2 mps 583 mmHg 94%
    23:00 -14°C° 0.5 mm 2 mps 583 mmHg 94%

    Tomorrow, 27 February, Thursday

    Time Temperature Precipitation Wind Pressure Humidity
    00:00 -14°C° 0.5 mm 2 mps 584 mmHg 94%
    01:00 -14°C° 0.5 mm 2 mps 584 mmHg 94%
    02:00 -14°C° 0.4 mm 2 mps 584 mmHg 94%
    03:00 -14°C° 0.4 mm 2 mps 584 mmHg 94%
    04:00 -15°C° 0.4 mm 2 mps 584 mmHg 94%
    05:00 -15°C° 0.1 mm 2 mps 585 mmHg 93%
    06:00 -15°C° 0.1 mm 2 mps 585 mmHg 92%
    07:00 -15°C° 0.1 mm 2 mps 585 mmHg 92%
    08:00 -12°C° 0 mm 1 mps 586 mmHg 87%
    09:00 -10°C° 0 mm 1 mps 586 mmHg 82%
    10:00 -8°C° 0 mm 1 mps 587 mmHg 77%
    11:00 -9°C° 0 mm 2 mps 587 mmHg 74%
    12:00 -8°C° 0 mm 2 mps 587 mmHg 71%
    13:00 -8°C° 0 mm 3 mps 587 mmHg 68%
    14:00 -8°C° 0 mm 3 mps 586 mmHg 70%
    15:00 -9°C° 0 mm 4 mps 585 mmHg 71%
    16:00 -9°C° 0 mm 4 mps 583 mmHg 73%
    17:00 -10°C° 0.3 mm 4 mps 583 mmHg 78%
    18:00 -12°C° 0.3 mm 5 mps 582 mmHg 84%
    19:00 -13°C° 0.3 mm 5 mps 582 mmHg 89%
    20:00 -13°C° 0.1 mm 5 mps 581 mmHg 88%
    21:00 -14°C° 0.1 mm 5 mps 581 mmHg 86%
    22:00 -14°C° 0.1 mm 5 mps 580 mmHg 85%
    23:00 -14°C° 0.2 mm 4 mps 581 mmHg 87%

    Day after tomorrow, 28 February, Friday

    Time Temperature Precipitation Wind Pressure Humidity
    00:00 -14°C° 0.2 mm 4 mps 582 mmHg 89%
    01:00 -13°C° 0.2 mm 3 mps 583 mmHg 91%
    02:00 -13°C° 0.8 mm 3 mps 583 mmHg 93%
    03:00 -13°C° 0.8 mm 3 mps 584 mmHg 94%
    04:00 -14°C° 0.8 mm 4 mps 585 mmHg 95%
    05:00 -13°C° 1.1 mm 3 mps 586 mmHg 95%
    06:00 -13°C° 1.1 mm 3 mps 587 mmHg 95%
    07:00 -13°C° 1.1 mm 3 mps 588 mmHg 95%
    08:00 -13°C° 0.6 mm 3 mps 589 mmHg 92%
    09:00 -12°C° 0.6 mm 4 mps 590 mmHg 88%
    10:00 -12°C° 0.6 mm 4 mps 591 mmHg 84%
    11:00 -10°C° 0.1 mm 3 mps 591 mmHg 82%
    12:00 -10°C° 0.1 mm 3 mps 592 mmHg 80%
    13:00 -8°C° 0.1 mm 2 mps 592 mmHg 78%
    14:00 -8°C° 0 mm 2 mps 592 mmHg 76%
    15:00 -7°C° 0 mm 1 mps 592 mmHg 74%
    16:00 -6°C° 0 mm 0 mps 592 mmHg 72%
    17:00 -8°C° 0 mm 1 mps 591 mmHg 71%
    18:00 -10°C° 0 mm 1 mps 591 mmHg 69%
    19:00 -13°C° 0 mm 2 mps 590 mmHg 68%
    20:00 -13°C° 0 mm 2 mps 590 mmHg 67%
    21:00 -12°C° 0 mm 2 mps 591 mmHg 66%
    22:00 -12°C° 0 mm 2 mps 591 mmHg 65%
    23:00 -12°C° 0 mm 3 mps 591 mmHg 66%

    29 February, Saturday

    Time Temperature Precipitation Wind Pressure Humidity
    00:00 -12°C° 0 mm 3 mps 591 mmHg 66%
    01:00 -12°C° 0 mm 3 mps 591 mmHg 67%
    02:00 -12°C° 0 mm 3 mps 590 mmHg 68%
    03:00 -12°C° 0 mm 3 mps 590 mmHg 69%
    04:00 -10°C° 0 mm 3 mps 590 mmHg 71%
    05:00 -10°C° 0 mm 3 mps 590 mmHg 71%
    06:00 -10°C° 0 mm 3 mps 589 mmHg 71%
    07:00 -10°C° 0 mm 3 mps 589 mmHg 71%
    08:00 -9°C° 0 mm 3 mps 589 mmHg 74%
    09:00 -7°C° 0 mm 3 mps 589 mmHg 76%
    10:00 -6°C° 0 mm 3 mps 590 mmHg 79%
    11:00 -7°C° 0 mm 4 mps 589 mmHg 81%
    12:00 -5°C° 0 mm 4 mps 589 mmHg 83%
    13:00 -5°C° 0 mm 4 mps 588 mmHg 85%
    14:00 -5°C° 0 mm 4 mps 588 mmHg 85%
    15:00 -5°C° 0 mm 4 mps 587 mmHg 85%
    16:00 -6°C° 0 mm 5 mps 587 mmHg 85%
    17:00 -8°C° 0 mm 4 mps 586 mmHg 86%
    18:00 -9°C° 0 mm 4 mps 586 mmHg 86%
    19:00 -10°C° 0 mm 4 mps 585 mmHg 87%
    20:00 -10°C° 0 mm 4 mps 585 mmHg 87%
    21:00 -11°C° 0 mm 4 mps 585 mmHg 88%
    22:00 -11°C° 0 mm 4 mps 585 mmHg 89%
    23:00 -9°C° 0 mm 3 mps 585 mmHg 89%

    1 March, Sunday

    Time Temperature Precipitation Wind Pressure Humidity
    00:00 -9°C° 0 mm 3 mps 585 mmHg 89%
    01:00 -7°C° 0 mm 2 mps 585 mmHg 89%
    02:00 -7°C° 0 mm 2 mps 585 mmHg 89%
    03:00 -8°C° 0 mm 2 mps 585 mmHg 89%
    04:00 -8°C° 0 mm 2 mps 585 mmHg 89%
    05:00 -7°C° 0 mm 1 mps 584 mmHg 90%
    06:00 -8°C° 0 mm 1 mps 584 mmHg 90%
    07:00 -8°C° 0 mm 1 mps 584 mmHg 91%
    08:00 -7°C° 0.5 mm 1 mps 585 mmHg 93%
    09:00 -4°C° 0.5 mm 1 mps 585 mmHg 95%
    10:00 -3°C° 0.5 mm 1 mps 586 mmHg 97%
    11:00 -3°C° 1.5 mm 1 mps 586 mmHg 98%
    12:00 -5°C° 1.5 mm 2 mps 586 mmHg 98%
    13:00 -5°C° 1.5 mm 2 mps 586 mmHg 98%
    14:00 -5°C° 1.3 mm 2 mps 585 mmHg 97%
    15:00 -5°C° 1.3 mm 2 mps 585 mmHg 96%
    16:00 -6°C° 1.3 mm 2 mps 585 mmHg 95%
    17:00 -7°C° 0.3 mm 2 mps 585 mmHg 94%
    18:00 -9°C° 0.3 mm 2 mps 584 mmHg 93%
    19:00 -9°C° 0.3 mm 1 mps 584 mmHg 92%
    20:00 -10°C° 0 mm 1 mps 584 mmHg 90%
    21:00 -10°C° 0 mm 1 mps 584 mmHg 88%
    22:00 -10°C° 0 mm 1 mps 584 mmHg 86%
    23:00 -10°C° 0 mm 1 mps 584 mmHg 86%

    2 March, Monday

    Time Temperature Precipitation Wind Pressure Humidity
    00:00 -10°C° 0 mm 1 mps 584 mmHg 87%
    01:00 -10°C° 0 mm 1 mps 585 mmHg 88%
    02:00 -10°C° 0 mm 1 mps 585 mmHg 88%
    03:00 -9°C° 0 mm 1 mps 585 mmHg 88%
    04:00 -9°C° 0 mm 1 mps 584 mmHg 87%
    05:00 -9°C° 0 mm 1 mps 584 mmHg 88%
    06:00 -9°C° 0 mm 1 mps 584 mmHg 88%
    07:00 -9°C° 0 mm 1 mps 584 mmHg 88%
    08:00 -8°C° 0 mm 2 mps 585 mmHg 89%
    09:00 -7°C° 0 mm 2 mps 586 mmHg 90%
    10:00 -5°C° 0 mm 2 mps 587 mmHg 91%
    11:00 -4°C° 0 mm 2 mps 587 mmHg 92%
    12:00 -4°C° 0 mm 2 mps 586 mmHg 93%
    13:00 -4°C° 0 mm 3 mps 586 mmHg 94%
    14:00 -4°C° 0 mm 3 mps 586 mmHg 94%
    15:00 -4°C° 0 mm 3 mps 585 mmHg 93%
    16:00 -4°C° 0 mm 3 mps 585 mmHg 93%
    17:00 -6°C° 0 mm 3 mps 584 mmHg 92%
    18:00 -7°C° 0 mm 3 mps 584 mmHg 91%
    19:00 -8°C° 0 mm 3 mps 583 mmHg 90%
    20:00 -8°C° 0 mm 3 mps 583 mmHg 90%
    21:00 -8°C° 0 mm 3 mps 583 mmHg 90%
    22:00 -8°C° 0 mm 3 mps 583 mmHg 90%
    23:00 -7°C° 0 mm 2 mps 583 mmHg 90%
    Show more